{"data":{"norad_id":67447,"epoch":"2026-09-19T03:37:16.556448Z","epoch_age_seconds":191883,"freshness":"STALE","line1":"1 67447U 26008C   26262.15088607  .00014542  00000+0  53676-3 0  9992","line2":"2 67447  42.9994 192.3026 0001416 262.9489  97.1201 15.27590558 39168","mean_motion":15.27590558,"eccentricity":0.0001416,"inclination_deg":42.9994,"raan_deg":192.3026,"arg_perigee_deg":262.9489,"mean_anomaly_deg":97.1201,"bstar":0.00053676,"rev_number":3916,"period_min":94.266097185448,"perigee_km":482.0459422969,"apogee_km":483.98902124614,"semimajor_km":6861.1544817715,"source":"CELESTRAK","updated_at":"2026-09-20T09:00:43.526615Z"}}